Fairbanks Ft. Wainwright, AK

6:49 AM AKDT on August 18, 2017 (GMT -0800)
Ladd Army Air Field

Weather History for PAFB - August, 2013

Change the Weather History Date:

Tuesday, August 20, 2013

  Actual Average Record
Temperature  
Mean Temperature 52 °F -  
Max Temperature 55 °F 61 °F 82 °F (2004)
Min Temperature 48 °F 45 °F 35 °F (1997)
Degree Days  
Heating Degree Days 14    
Growing Degree Days 2 (Base 50)    
Moisture  
Dew Point 49 °F    
Average Humidity 89    
Maximum Humidity 94    
Minimum Humidity 76    
Precipitation  
Precipitation 0.01 in - - ()
Sea Level Pressure  
Sea Level Pressure 29.71 in    
Wind  
Wind Speed 6 mph (SSW)    
Max Wind Speed 16 mph    
Max Gust Speed -    
Visibility 7 miles    
Events Fog , Rain    
Averages and records for this station are not official NWS values.
T = Trace of Precipitation, MM = Missing Value Source: NWS Daily Summary

Daily Weather History Graph

Daily Weather History Graph

Search for Another Location

Airport or City:

Trip Planner

Search our weather history database for the weather conditions in past years. The results will help you decide how hot, cold, wet, or windy it might be!

Date:

Astronomy

Aug. 20, 2013 Rise Set
Actual Time 5:54 AM AKDT 9:50 PM AKDT
Civil Twilight 4:51 AM AKDT 10:52 PM AKDT
Nautical Twilight 2:54 AM AKDT 12:42 AM AKDT
Astronomical Twilight Sun does not set Sun does not set
Moon 8:56 PM AKDT (8/20) 5:51 AM AKDT (8/20)
Length of Visible Light 18h 01m
Length of Day
15h 56m
Full, 100% of the Moon is Illuminated
Aug 20
Full
Aug 20
Full
Aug 28
Last Quarter
Sep 5
New
Sep 12
First Quarter

Hourly Weather History & Observations

Time (AKDT) Temp. Dew Point Humidity Pressure Visibility Wind Dir Wind Speed Gust Speed Precip Events Conditions
12:56 AM 54.0 °F 51.1 °F 90% 29.66 in 10.0 mi SSE 3.5 mph - 0.00 in Rain Light Rain
1:56 AM 54.0 °F 50.0 °F 86% 29.67 in 10.0 mi Calm Calm - 0.00 in Rain Light Rain
2:56 AM 54.0 °F 50.0 °F 86% 29.67 in 10.0 mi Calm Calm - 0.00 in Rain Light Rain
3:38 AM 53.6 °F 50.0 °F 88% 29.66 in 6.2 mi SSE 3.5 mph - 0.00 in Rain Light Rain
3:56 AM 53.1 °F 50.0 °F 89% 29.67 in 10.0 mi South 3.5 mph - 0.00 in Rain Light Rain
4:14 AM 51.8 °F 50.0 °F 94% 29.66 in 6.2 mi SSE 4.6 mph - 0.01 in Rain Light Rain
4:37 AM 51.8 °F 50.0 °F 94% 29.66 in 6.2 mi South 5.8 mph - 0.01 in Rain Light Rain
4:54 AM 51.8 °F 50.0 °F 94% 29.66 in 6.2 mi South 6.9 mph - 0.01 in Rain Rain
4:56 AM 52.0 °F 50.0 °F 93% 29.67 in 6.0 mi South 5.8 mph - 0.01 in Rain Rain
5:22 AM 51.8 °F 50.0 °F 94% 29.66 in 5.0 mi SSW 8.1 mph - N/A Rain Rain
5:29 AM 51.8 °F 50.0 °F 94% 29.66 in 5.0 mi SSW 8.1 mph - N/A Rain Light Rain
5:38 AM 51.8 °F 50.0 °F 94% 29.66 in 6.2 mi SSW 8.1 mph - N/A Rain Light Rain
5:56 AM 52.0 °F 50.0 °F 93% 29.67 in 8.0 mi SW 10.4 mph - N/A   Overcast
6:30 AM 51.8 °F 50.0 °F 94% 29.65 in 5.0 mi SW 10.4 mph - N/A Rain Light Rain
6:55 AM 51.8 °F 50.0 °F 94% 29.67 in 5.0 mi SSW 10.4 mph - N/A Rain Light Rain
7:55 AM 51.8 °F 48.2 °F 88% 29.66 in 5.0 mi SSW 9.2 mph - N/A Rain Light Rain
8:15 AM 51.8 °F 50.0 °F 94% 29.66 in 6.0 mi WSW 11.5 mph - N/A Rain Light Rain
8:59 AM 51.8 °F 48.2 °F 88% 29.67 in 6.0 mi WSW 16.1 mph - N/A Rain Light Rain
9:20 AM 53.6 °F 50.0 °F 88% 29.67 in 7.0 mi WSW 13.8 mph - N/A Rain Light Rain
9:55 AM 53.6 °F 50.0 °F 88% 29.68 in 5.0 mi WSW 12.7 mph - N/A Rain Light Rain
10:55 AM 53.6 °F 50.0 °F 88% 29.68 in 5.0 mi WSW 13.8 mph - N/A Rain Light Rain
11:55 AM 53.6 °F 50.0 °F 88% 29.70 in 5.0 mi WSW 12.7 mph - N/A Rain Light Rain
12:20 PM 53.6 °F 50.0 °F 88% 29.69 in 13.0 mi SW 12.7 mph - N/A Rain Light Rain Showers
12:55 PM 53.6 °F 50.0 °F 88% 29.70 in 13.0 mi WSW 12.7 mph - N/A   Mostly Cloudy
1:55 PM 53.6 °F 50.0 °F 88% 29.72 in 13.0 mi West 9.2 mph - N/A   Mostly Cloudy
2:55 PM 55.4 °F 48.2 °F 77% 29.73 in 10.0 mi SW 10.4 mph - N/A   Mostly Cloudy
3:55 PM 55.4 °F 50.0 °F 82% 29.73 in 10.0 mi SSW 5.8 mph - N/A   Mostly Cloudy
4:55 PM 55.4 °F 48.2 °F 77% 29.72 in 10.0 mi South 6.9 mph - N/A   Mostly Cloudy
5:30 PM 55.4 °F 50.0 °F 82% 29.71 in 7.0 mi South 4.6 mph - N/A Rain Light Rain
5:55 PM 53.6 °F 51.8 °F 94% 29.73 in 4.0 mi Variable 6.9 mph - N/A Rain Light Rain
6:55 PM 51.8 °F 44.6 °F 76% 29.74 in 7.0 mi Calm Calm - N/A Rain Light Rain
7:10 PM 51.8 °F 46.4 °F 82% 29.72 in 10.0 mi ESE 5.8 mph - N/A   Mostly Cloudy
7:55 PM 51.8 °F 44.6 °F 76% 29.76 in 10.0 mi Calm Calm - N/A   Mostly Cloudy
8:55 PM 51.8 °F 48.2 °F 88% 29.77 in 10.0 mi Variable 3.5 mph - N/A   Mostly Cloudy
9:55 PM 50.0 °F 48.2 °F 94% 29.77 in 10.0 mi Variable 3.5 mph - N/A   Mostly Cloudy
10:05 PM 50.0 °F 46.4 °F 87% 29.76 in 10.0 mi East 3.5 mph - N/A   Mostly Cloudy
10:54 PM 48.2 °F 46.4 °F 93% 29.77 in 10.0 mi ENE 4.6 mph - N/A   Mostly Cloudy
10:56 PM 48.0 °F 46.0 °F 93% 29.79 in 10.0 mi ENE 4.6 mph - N/A   Mostly Cloudy
11:31 PM 48.2 °F 46.4 °F 93% 29.78 in 6.2 mi East 6.9 mph - N/A   Mostly Cloudy
11:37 PM 48.2 °F 46.4 °F 93% 29.78 in 1.5 mi East 5.8 mph - N/A   Mostly Cloudy
11:46 PM 48.2 °F 46.4 °F 93% 29.78 in 0.5 mi East 4.6 mph - N/A Fog Fog
11:56 PM 48.0 °F 46.0 °F 93% 29.79 in 0.8 mi East 4.6 mph - N/A   Mist